RH
6 6 6 6 5 8 9 7 8 8 7 6 5 5 6 5 5 7 7 8 8 10 11 9 8 11 17 22 24 23 23 24 26 32 39 44 44 40 39 38 37 39 39 37 37 37 36 39 43 46 41 39 41 40 38 38 36 37 39 41 42 42 42 42 41 41 41 41 41 39 35 33 33 34 32 27 23 22 24 28 31 32 32 29 27 25 25 25 26 26 27 29 29 28 28 27 26
6 6 6 5 6 10 9 5 7 8 6 6 6 5 6 5 5 6 7 7 7 9 10 8 9 13 16 22 26 29 31 30 30 34 43 46 45 44 40 39 40 41 42 40 39 39 39 42 45 44 41 42 44 42 42 41 39 36 36 38 39 40 41 41 42 42 43 43 42 40 36 33 34 34 34 31 24 22 23 27 32 32 30 31 31 27 25 27 28 29 29 31 30 29 29 28 27
7 7 7 6 7 9 8 5 6 7 6 5 6 6 5 4 5 6 7 6 7 7 8 8 12 19 22 28 32 35 39 37 36 38 43 46 47 45 39 40 42 43 47 44 42 44 46 47 46 42 41 45 45 45 45 43 41 37 35 36 36 38 40 41 42 43 45 45 44 41 37 33 33 34 33 31 25 23 23 28 31 28 28 33 33 28 27 28 30 32 32 32 32 32 31 30 29
7 7 9 9 7 7 8 7 6 6 5 5 5 6 5 6 6 6 7 7 7 8 9 9 15 25 29 35 37 36 39 39 40 41 43 47 47 43 40 43 45 48 50 49 49 50 50 49 45 41 43 48 47 47 45 44 42 39 37 36 36 37 39 40 42 46 47 48 47 43 38 32 31 32 30 29 26 24 24 28 31 27 28 31 32 30 29 30 33 35 35 34 33 34 33 33 30
8 8 9 10 9 9 9 8 7 6 5 6 5 6 6 6 7 6 7 7 8 8 9 10 19 30 31 35 36 35 41 42 41 40 42 45 47 45 44 48 51 53 54 54 54 52 49 47 43 41 47 50 48 47 46 45 43 40 38 37 37 37 38 39 42 49 50 50 48 42 36 32 31 30 28 27 26 25 25 29 32 30 30 32 33 33 31 32 36 39 38 36 35 36 35 34 32
9 9 8 9 10 9 9 8 7 6 5 5 5 5 6 7 7 6 6 7 8 8 10 14 25 34 33 37 37 37 42 43 41 39 41 43 46 48 49 52 53 54 54 53 53 50 48 46 42 43 50 51 49 48 47 46 45 43 40 39 39 39 38 40 46 52 52 50 46 41 36 34 34 32 31 28 25 26 26 29 34 32 33 35 35 36 34 33 37 41 39 37 37 37 36 36 33
10 10 8 8 8 7 9 8 6 6 6 5 5 6 6 7 7 6 8 9 9 10 13 18 25 34 39 40 39 41 43 43 42 40 42 42 44 48 49 50 51 52 50 49 52 49 47 45 42 46 51 50 49 48 48 47 46 45 42 41 40 40 40 44 51 54 53 49 45 40 37 36 36 35 34 31 25 25 26 29 35 35 35 37 37 38 37 35 38 41 40 39 39 38 38 37 34
10 9 7 8 10 8 8 8 6 7 7 5 5 6 6 7 7 7 9 10 11 11 14 17 21 32 42 41 39 44 45 44 43 41 43 43 43 46 47 46 48 51 49 49 50 47 44 41 40 47 49 49 49 49 50 48 47 45 43 42 40 41 44 49 54 54 52 48 44 40 39 40 40 36 33 33 28 25 28 31 35 36 37 39 39 40 41 38 39 42 41 41 40 39 39 38 36
9 9 7 8 11 9 7 7 6 6 6 6 6 6 7 9 9 8 9 12 13 12 13 14 20 32 41 40 41 44 46 46 44 42 43 42 42 43 43 41 43 47 48 49 47 44 41 38 42 48 49 50 50 50 51 49 48 46 44 41 40 43 47 50 52 52 50 47 44 42 44 44 44 41 35 33 29 27 31 34 35 37 41 43 42 44 44 38 39 44 43 43 43 41 41 41 39
8 9 9 9 9 8 7 6 6 6 6 6 6 7 9 10 10 9 11 14 14 13 13 15 23 33 40 43 44 46 48 48 44 43 42 40 40 40 41 40 40 42 46 48 44 42 40 38 44 50 51 51 52 52 51 50 49 47 46 42 40 44 47 49 49 50 48 47 45 45 49 46 44 46 38 30 27 29 32 37 38 39 45 47 46 48 45 39 40 44 44 44 45 44 44 44 42
9 8 8 9 8 8 7 7 6 7 6 6 7 8 10 10 11 12 13 17 16 12 14 18 25 31 40 44 44 48 49 47 44 43 40 38 38 39 40 39 39 42 46 46 42 41 40 40 45 50 51 52 52 52 52 51 49 48 48 44 41 42 43 45 46 48 47 46 45 46 49 46 42 40 34 29 29 31 32 37 39 41 48 49 49 51 46 39 39 43 45 46 47 46 46 47 45
10 9 7 9 9 8 7 7 7 7 6 6 8 9 10 10 11 14 13 19 19 13 15 22 30 33 39 42 43 48 48 46 44 42 39 38 40 40 39 38 38 42 45 44 41 42 41 42 45 50 52 52 53 53 53 52 51 50 48 46 44 42 42 42 43 45 46 45 45 46 45 42 38 33 30 31 32 33 35 36 37 43 50 51 51 52 46 40 41 44 46 48 48 47 48 49 48
11 10 9 9 8 8 6 7 7 6 7 7 9 9 10 10 11 14 13 20 22 17 19 26 32 35 40 42 43 47 46 44 44 42 39 38 42 41 39 39 40 42 44 43 43 43 44 46 48 54 55 52 54 54 54 54 53 51 49 49 48 46 44 42 42 43 45 44 43 42 40 39 38 36 35 33 33 35 37 37 39 44 50 51 53 52 46 43 43 44 46 48 49 47 50 51 49
9 9 9 9 8 7 6 7 7 6 8 8 9 9 10 9 11 14 14 22 28 23 27 29 29 34 40 41 42 44 43 42 41 42 40 39 41 41 41 42 42 44 45 45 45 45 47 52 53 57 58 57 58 56 55 54 52 51 50 52 50 48 46 45 45 44 44 43 42 40 40 41 43 45 43 39 36 37 41 43 45 48 49 50 54 54 47 47 46 45 47 49 50 49 52 54 50
9 8 9 10 8 7 6 7 7 7 9 9 9 10 10 10 11 14 14 21 29 27 29 32 30 35 39 40 41 40 41 42 41 43 42 41 42 42 44 45 45 46 48 48 47 49 53 56 57 58 58 60 61 58 55 52 50 51 51 53 50 48 48 49 50 50 48 46 44 43 44 47 49 52 53 50 45 42 46 49 51 52 50 48 54 54 47 48 49 47 48 51 52 50 53 56 53
9 8 10 10 8 7 7 7 7 7 9 9 10 10 10 11 11 13 15 21 28 26 29 35 33 35 38 38 40 39 40 42 42 43 42 43 46 47 45 46 49 51 53 54 53 57 61 61 60 59 60 61 61 58 54 51 51 52 53 54 50 48 50 52 55 55 52 49 47 47 50 51 52 57 62 61 59 55 53 52 54 55 52 49 54 54 49 50 51 52 52 53 54 53 57 60 55
9 9 11 11 8 7 8 7 7 8 10 10 10 11 11 12 11 12 15 23 28 25 29 37 36 37 40 39 41 41 42 43 44 47 46 46 50 51 50 51 54 57 58 59 58 63 65 63 63 62 64 65 61 57 54 55 55 52 54 55 51 49 51 52 56 56 54 51 49 51 53 54 56 62 66 66 67 65 59 56 55 56 56 52 54 54 51 51 52 54 55 53 55 57 61 63 58
9 10 11 10 8 8 8 7 8 8 9 10 10 11 11 13 13 12 14 19 24 24 28 33 36 40 41 42 43 44 44 47 50 53 53 49 49 52 55 56 59 62 64 64 63 64 65 65 64 64 66 63 56 55 57 58 56 54 56 57 55 54 54 54 57 56 53 52 52 54 56 60 63 67 71 68 67 66 63 62 57 56 57 54 55 55 53 51 52 53 54 53 55 58 60 62 61
9 11 12 10 9 9 8 7 7 7 8 9 10 11 11 13 14 13 14 17 18 22 27 29 35 40 40 43 44 45 47 48 48 49 50 50 52 56 59 62 64 68 67 67 67 68 71 70 67 64 61 55 50 53 57 58 57 58 60 60 60 57 56 57 59 58 56 56 57 58 58 61 63 69 73 67 63 65 63 61 56 53 53 56 59 58 54 51 52 52 53 54 55 57 58 59 62
9 11 12 10 10 9 8 7 7 8 8 8 10 11 11 13 13 14 15 18 17 19 25 30 37 41 42 44 43 44 45 43 44 45 50 55 59 61 64 66 69 76 74 72 73 73 79 80 73 64 56 52 51 53 54 57 61 61 62 63 60 57 58 60 60 61 59 58 59 59 59 60 62 66 68 63 59 60 58 57 55 51 51 56 59 59 55 49 51 54 54 56 57 59 60 59 61
10 10 10 11 10 8 8 8 7 8 8 8 9 11 12 13 13 14 15 17 18 17 22 29 38 43 45 44 42 44 42 41 46 49 54 59 61 60 67 73 75 84 84 81 81 77 82 84 74 65 58 54 54 55 54 58 63 63 64 63 60 60 62 64 63 64 62 60 62 64 63 64 66 66 64 62 58 56 59 60 59 56 55 57 59 63 60 52 52 55 56 58 61 61 61 62 60
11 9 9 10 9 9 9 8 8 8 8 8 9 11 13 12 12 14 15 16 17 17 22 30 37 42 46 46 46 48 44 44 47 48 52 57 58 52 57 70 79 94 92 82 82 78 79 80 71 64 60 56 55 58 58 60 63 64 66 66 64 63 63 65 67 66 65 64 67 69 68 68 70 69 64 61 58 59 62 65 65 63 63 60 60 67 65 58 57 58 58 59 63 63 62 63 62
10 10 9 9 9 9 9 8 8 8 8 8 9 11 11 12 12 14 15 15 17 17 22 30 38 42 46 49 50 51 48 45 45 46 49 51 50 41 37 44 55 82 93 83 80 78 76 77 69 62 60 60 59 61 63 64 64 66 69 69 68 64 62 67 69 68 68 69 71 70 70 70 71 69 65 62 63 66 66 67 67 66 67 63 61 65 64 61 58 59 60 59 62 63 61 60 62
9 10 11 9 9 9 8 9 8 8 8 8 8 10 11 12 13 15 15 15 18 20 24 32 40 44 48 51 50 51 48 44 43 43 44 42 40 33 31 35 37 55 82 86 79 76 75 75 69 61 61 64 64 65 67 70 71 72 73 72 71 68 66 67 67 68 69 70 71 69 69 72 72 68 65 66 68 70 68 66 63 61 63 63 63 64 62 61 57 56 57 57 60 61 59 56 59
9 9 10 9 9 9 9 9 8 8 8 8 8 8 11 13 13 14 15 16 21 25 29 35 41 46 50 50 48 48 46 42 42 42 42 39 36 32 32 42 39 40 68 83 76 73 71 69 66 61 62 64 67 69 71 75 78 77 74 73 74 73 70 66 65 69 70 72 72 70 71 73 73 68 67 71 72 71 69 68 66 63 63 63 64 63 59 58 56 56 57 57 59 59 60 60 65
10 8 9 8 8 9 9 9 8 9 8 8 8 8 11 13 13 14 17 21 25 30 34 36 40 48 51 49 47 46 43 41 42 41 43 43 38 35 34 41 43 38 51 62 63 70 69 64 65 64 65 67 69 73 73 75 78 77 75 75 77 76 71 64 66 74 75 76 74 71 73 76 74 71 70 73 73 72 71 71 71 70 69 69 70 69 63 59 59 61 62 62 61 59 62 65 71
11 9 9 9 9 9 10 9 8 8 8 8 7 8 11 13 13 16 23 26 27 32 36 36 42 50 51 48 47 44 43 44 44 41 45 46 39 37 36 38 44 42 43 46 49 62 66 64 68 70 70 70 70 76 78 76 75 75 75 76 77 74 70 66 69 75 76 73 72 71 74 77 75 72 72 73 73 72 71 71 72 72 73 72 73 75 71 66 67 66 63 64 63 63 64 67 74
11 10 10 9 9 9 9 9 9 9 8 8 8 8 10 11 12 16 24 27 27 32 34 37 45 52 50 47 46 43 43 45 45 44 45 47 41 37 39 39 39 40 44 49 49 54 59 64 72 74 72 71 70 75 78 77 76 74 72 72 75 73 69 67 67 70 71 71 72 72 75 77 74 72 71 73 74 73 74 75 76 76 76 73 71 72 70 69 71 70 67 68 68 70 70 69 75
11 10 11 12 10 9 10 10 10 9 9 9 8 9 10 10 12 16 22 25 26 31 35 39 44 48 47 45 45 42 41 43 45 46 44 45 42 37 40 41 39 42 48 54 55 55 59 65 72 73 72 73 72 73 76 79 77 72 69 70 72 72 69 67 66 68 70 72 73 73 76 77 73 71 73 76 78 79 79 80 80 80 79 77 73 71 71 71 73 73 72 73 72 73 73 72 76
13 12 13 14 12 11 12 11 10 9 9 9 9 10 11 11 12 16 23 25 26 31 38 42 42 44 45 43 44 43 41 42 43 44 43 45 43 38 40 41 41 46 51 56 59 60 61 64 69 70 71 75 74 71 75 78 76 72 72 72 71 70 69 66 64 67 73 74 73 74 76 76 75 75 77 81 83 84 83 82 81 81 79 77 76 76 77 78 77 77 76 76 76 76 76 77 78
15 15 14 14 14 14 13 11 11 11 11 10 9 10 12 14 13 16 22 25 27 32 39 43 41 43 44 43 44 45 43 43 42 42 42 42 40 38 40 40 40 44 48 54 58 61 62 62 65 68 70 75 74 72 75 76 75 76 74 72 69 68 67 65 64 70 79 78 73 73 75 77 79 78 81 84 84 85 84 83 80 79 77 76 78 79 81 82 81 81 80 80 80 80 79 79 79
17 17 16 15 14 15 14 12 11 11 12 11 10 11 13 15 15 17 22 24 26 30 38 43 42 41 42 43 44 46 45 43 41 41 41 40 36 35 38 39 39 41 45 50 53 58 61 61 62 62 64 69 71 71 73 75 78 78 75 72 69 66 64 63 67 73 79 78 73 72 73 76 80 80 80 82 83 85 82 81 82 81 81 81 80 80 80 81 81 80 80 81 81 80 80 80 78
18 17 18 17 15 16 15 13 12 11 12 12 11 13 15 16 15 17 21 23 25 28 37 44 44 42 42 42 42 45 46 42 40 41 40 39 35 34 36 38 39 42 46 49 50 50 53 55 56 56 58 62 66 69 70 74 80 80 78 77 71 66 63 63 68 71 72 73 74 73 70 73 78 80 80 79 83 85 81 81 84 83 83 83 82 81 81 81 82 81 80 80 80 80 81 78 72
19 17 17 17 16 16 16 15 13 12 13 13 12 13 15 16 15 18 21 22 23 27 36 44 45 44 43 43 42 45 47 42 40 43 42 40 38 35 36 40 43 44 47 49 50 48 46 48 51 53 53 54 60 67 66 70 78 79 77 75 70 65 63 65 68 70 71 72 74 73 71 73 77 80 81 82 84 83 81 82 83 82 82 81 81 81 81 81 82 81 80 79 78 80 79 70 63
22 20 17 17 17 16 17 16 15 14 14 14 14 14 15 15 15 18 20 21 22 24 33 42 46 47 46 44 42 43 47 44 43 47 45 41 41 40 39 43 46 46 47 48 49 49 46 47 50 50 50 51 57 62 63 66 72 73 71 69 67 65 63 65 70 71 72 73 73 72 72 75 78 79 80 81 80 79 79 80 80 80 79 78 77 78 78 78 78 79 77 75 73 73 69 62 59
20 20 18 18 18 17 17 16 16 15 15 15 14 15 16 16 18 18 18 21 23 23 28 36 41 44 44 43 41 42 46 47 47 49 47 45 46 45 44 46 46 47 48 47 49 49 46 48 52 50 51 56 60 62 62 63 66 66 66 66 67 66 63 66 70 71 70 71 72 73 74 77 79 80 78 77 76 76 76 76 76 76 74 73 72 70 70 69 70 70 68 65 63 62 60 57 57
19 19 18 17 17 18 18 17 17 15 15 15 15 16 17 17 19 20 17 18 21 22 24 29 32 35 39 42 43 43 45 49 52 51 48 49 49 47 46 46 46 48 48 47 48 50 47 47 51 53 56 58 60 62 62 63 65 65 66 67 67 67 65 66 67 68 68 71 73 74 76 79 80 79 77 74 71 71 70 69 69 68 67 66 63 62 61 60 61 61 58 57 57 56 57 56 55
20 19 18 17 18 19 19 19 18 16 16 16 15 15 17 16 18 21 19 17 18 20 22 25 25 27 32 37 39 42 46 49 52 54 52 50 49 48 47 46 46 47 48 48 48 50 50 50 51 55 60 60 61 63 63 64 65 65 65 64 63 64 64 65 68 68 69 72 73 75 78 79 79 76 72 69 66 65 64 61 61 59 57 57 56 56 56 56 56 55 53 52 54 55 55 55 53
22 21 19 19 20 20 21 21 18 18 17 17 16 17 18 17 18 21 20 18 18 18 20 23 24 24 28 31 32 37 45 49 52 56 56 52 49 50 49 46 45 46 48 49 48 49 51 54 55 56 61 64 66 66 66 66 65 64 63 62 61 62 62 65 70 70 70 72 73 74 74 74 74 70 66 64 63 63 60 57 57 55 53 55 56 55 54 54 54 53 52 49 51 53 50 50 50
24 23 20 22 23 21 24 24 21 19 18 18 19 19 18 17 18 19 19 18 19 19 20 23 23 23 26 29 30 36 42 46 52 56 58 54 51 51 50 47 45 45 49 50 49 50 50 53 55 56 60 65 68 68 68 70 69 67 66 64 62 61 62 66 69 68 69 73 74 69 67 68 69 68 67 66 64 63 60 58 59 57 57 58 57 55 54 54 52 50 50 47 47 50 47 47 48
23 23 23 25 25 23 23 24 22 20 19 19 19 19 18 17 17 18 20 22 21 20 21 23 24 24 26 27 31 37 41 45 50 53 56 54 52 52 51 49 46 46 49 50 51 51 51 53 53 54 58 63 68 69 70 72 73 72 68 66 64 63 64 66 66 65 66 69 67 62 63 65 68 71 70 68 65 62 59 59 59 59 59 58 55 54 52 52 50 49 49 47 46 48 48 47 49
22 25 26 27 25 23 21 20 21 20 20 21 21 21 20 18 19 21 24 26 23 22 22 21 22 25 26 28 32 38 43 47 50 51 53 53 52 52 51 48 46 46 48 52 54 54 53 54 53 54 56 60 67 70 71 74 75 74 70 67 67 66 67 67 67 67 65 65 61 60 65 68 68 69 66 63 62 57 55 57 57 58 58 54 51 51 49 47 47 48 48 46 46 48 50 50 51
23 26 28 27 23 21 20 21 22 21 22 26 24 22 21 21 22 23 24 26 26 26 24 23 22 22 25 28 33 39 42 47 51 51 51 51 50 51 51 48 46 47 49 54 59 58 58 57 55 56 57 61 67 71 74 74 73 72 67 66 69 68 70 69 68 69 67 64 62 62 67 67 66 64 57 55 56 54 52 53 53 56 57 51 46 46 45 43 45 47 47 47 48 49 50 51 51
25 27 26 25 22 21 20 21 22 22 25 29 24 22 22 21 21 25 27 27 30 30 27 26 25 22 24 27 32 38 40 45 52 53 48 47 48 50 50 48 47 47 48 55 61 61 62 61 58 59 59 61 66 71 75 74 71 71 65 65 70 71 72 71 69 70 70 68 65 63 64 64 63 61 55 52 54 55 52 50 50 52 54 50 45 44 42 41 44 45 45 46 48 49 49 51 53
25 25 23 24 24 23 21 21 23 25 26 28 26 25 23 21 21 27 29 29 36 38 31 28 27 26 27 27 31 37 40 45 51 51 45 43 46 47 48 48 47 50 55 62 67 66 66 64 61 60 60 61 66 71 73 71 70 70 67 67 69 71 73 73 71 71 72 71 66 61 62 63 61 59 58 56 57 58 54 52 52 51 51 50 48 48 45 43 43 42 42 44 45 48 49 50 55
25 24 24 25 26 24 23 23 26 30 28 26 28 29 24 20 21 30 37 39 45 46 39 34 30 27 29 30 33 38 42 48 52 49 43 41 44 45 47 48 48 56 66 71 72 71 69 66 63 63 62 64 68 70 70 71 73 74 73 71 69 71 76 74 72 72 73 71 63 58 59 60 60 60 59 56 57 58 54 52 51 48 46 45 47 49 48 45 44 41 40 40 40 45 51 51 53
25 25 25 27 27 25 26 27 29 34 32 25 28 32 27 20 24 38 48 49 47 47 46 42 34 32 38 41 41 42 43 48 49 46 43 42 43 44 47 49 48 55 63 66 69 71 70 67 66 66 67 68 71 71 69 69 71 74 75 72 70 73 78 76 73 73 73 70 63 59 60 61 62 58 55 54 55 55 52 47 44 41 38 37 37 41 44 46 46 44 43 40 37 40 47 49 49
25 26 29 31 31 30 31 32 33 33 31 28 29 32 27 21 30 45 51 49 46 47 49 46 42 42 45 44 43 42 43 47 47 45 45 44 44 46 48 51 52 52 54 57 64 72 72 67 64 64 66 67 69 71 71 69 69 71 72 71 72 75 76 75 72 74 75 72 65 60 62 63 59 53 52 54 54 51 48 44 40 38 37 33 31 35 41 44 43 42 44 44 41 39 40 41 43
25 26 31 34 33 36 35 34 35 30 29 31 30 30 27 25 36 46 46 47 47 47 45 45 46 44 40 38 40 41 42 45 45 44 44 42 44 47 48 53 55 55 54 54 62 73 75 67 61 60 60 61 64 68 72 73 72 73 74 74 76 77 76 74 71 76 79 72 62 57 56 56 53 52 53 54 53 51 48 45 41 41 39 34 32 35 37 40 43 43 44 45 46 43 38 36 38
25 27 32 33 32 38 38 33 32 28 30 35 31 27 25 28 40 42 40 45 47 45 43 44 47 43 37 37 38 39 40 41 41 41 40 38 40 44 48 53 57 59 60 58 63 73 72 64 62 62 60 60 61 65 70 73 72 73 76 79 79 79 81 78 74 77 77 66 55 51 51 53 54 56 57 56 54 54 53 48 44 42 40 36 35 36 36 40 47 51 49 47 48 47 41 36 37
27 27 30 32 31 35 37 32 32 32 36 39 34 27 24 32 46 45 40 46 48 48 46 44 46 43 40 40 39 39 40 38 38 38 39 40 41 45 51 54 58 62 65 63 65 69 66 62 62 63 60 59 60 61 66 70 70 71 76 81 80 80 84 83 78 77 73 61 51 50 54 59 61 61 61 60 56 56 55 49 45 42 40 39 39 39 39 40 43 44 44 44 44 45 42 37 37
31 29 31 33 31 32 35 36 39 39 39 41 36 29 29 40 50 48 46 50 50 51 50 49 50 47 45 44 42 41 41 40 40 40 43 46 47 51 56 59 62 64 66 66 65 66 66 64 63 61 58 57 60 64 66 68 68 69 74 78 79 80 82 79 76 75 69 58 52 55 61 65 65 63 61 60 57 56 53 48 46 43 40 42 42 42 42 39 38 39 39 38 36 39 41 39 38
33 32 32 32 31 33 36 38 39 35 34 40 36 30 34 43 47 49 53 55 53 52 54 57 58 54 52 51 50 48 47 47 48 47 50 53 54 56 60 64 66 64 63 66 66 65 69 69 65 62 57 53 58 64 65 66 66 69 73 74 75 77 75 70 70 73 68 60 59 63 65 65 64 61 59 58 56 54 51 50 49 43 40 44 45 43 42 37 37 40 41 39 35 37 41 42 42
35 36 32 31 32 33 35 38 38 33 33 38 35 32 38 43 45 52 59 59 54 52 56 62 65 61 59 60 58 56 55 56 56 56 56 58 61 64 66 69 71 67 64 67 68 68 73 73 68 65 60 54 56 61 63 65 66 68 70 71 73 75 71 65 64 68 68 65 65 65 64 63 62 59 59 57 56 55 54 53 50 44 42 46 45 43 41 39 40 42 42 41 37 36 37 37 39
34 37 35 36 37 36 35 37 39 37 34 36 36 34 37 42 48 58 64 63 59 56 60 64 65 65 66 68 66 63 63 64 62 61 62 64 68 72 75 75 72 71 70 71 73 74 76 77 72 69 64 59 59 63 65 66 63 63 66 68 72 74 69 64 60 59 62 66 66 65 65 64 61 59 60 59 59 60 58 55 52 47 43 42 42 42 42 42 43 43 43 42 39 37 35 34 34
31 35 37 39 41 41 41 37 36 38 38 39 38 36 41 50 56 61 66 66 62 60 63 65 65 67 69 71 72 70 70 69 67 65 65 67 70 72 77 77 73 73 72 73 77 77 78 81 77 72 66 60 60 63 65 64 60 60 65 66 68 68 65 62 59 55 56 62 64 65 65 62 58 58 61 62 64 63 62 59 54 48 44 41 40 41 44 45 44 44 44 43 40 38 37 37 34
33 34 36 39 40 42 44 41 38 38 40 44 41 39 53 60 55 58 63 63 61 60 63 65 66 67 67 68 71 72 72 73 72 68 68 69 68 69 76 80 77 74 73 76 81 80 80 82 77 71 66 60 59 62 65 66 64 63 65 64 64 66 64 61 59 55 53 56 61 65 66 62 59 59 63 66 67 66 66 64 57 49 45 42 41 40 43 47 47 46 46 45 44 42 41 42 40
41 37 37 40 42 41 41 41 41 36 36 44 40 43 64 66 52 56 61 59 60 60 62 67 69 71 73 72 72 72 72 72 72 70 69 69 69 72 78 83 82 77 77 84 89 85 83 83 76 70 66 62 61 63 67 69 68 66 64 63 63 66 67 65 60 55 53 55 60 64 66 62 59 61 66 70 69 68 69 65 57 51 47 46 46 43 44 48 47 44 46 47 47 45 44 45 45